Location: Dumpton Point
(51.3500°N, 1.4433°E)
Time: 16:42:32
(UTC+00:00)

deb Explorer IX - All Passes

Search period start: 24 September 2022 00:00
Search period end: 04 October 2022 00:00
Orbit: 530 x 1066 km, 38.8° (Epoch: 20 September)

Date Brightness Start Highest point End Pass type
(mag) Time Alt. Az. Time Alt. Az. Time Alt. Az.
24 Sep - 09:45:54 10° SSW 09:50:17 19° SSE 09:54:54 10° ESE daylight
24 Sep - 11:30:10 10° SW 11:35:49 28° S 11:41:41 10° ESE daylight
24 Sep - 13:15:59 10° WSW 13:21:33 26° SSW 13:27:10 10° SE daylight
24 Sep - 15:03:36 10° WSW 15:06:58 14° SSW 15:10:16 10° S daylight
25 Sep - 09:15:45 10° SSW 09:19:50 18° SSE 09:24:08 10° ESE daylight
25 Sep - 10:59:48 10° SW 11:05:18 28° S 11:11:06 10° ESE daylight
25 Sep - 12:45:29 10° WSW 12:51:02 26° SSW 12:56:42 10° SE daylight
25 Sep - 14:32:50 10° WSW 14:36:28 15° SSW 14:40:07 10° S daylight
26 Sep - 08:45:39 10° S 08:49:22 16° SSE 08:53:20 10° ESE daylight
26 Sep - 10:29:27 10° SW 10:34:46 27° S 10:40:28 10° ESE daylight
26 Sep - 12:15:00 10° WSW 12:20:30 26° S 12:26:11 10° SE daylight
26 Sep - 14:02:07 10° WSW 14:05:59 16° SSW 14:09:53 10° S daylight
27 Sep - 08:15:37 10° S 08:18:56 15° SSE 08:22:27 10° ESE daylight
27 Sep - 09:59:08 10° SW 10:04:16 26° S 10:09:48 10° ESE daylight
27 Sep - 11:44:33 10° WSW 11:49:57 26° S 11:55:38 10° SE daylight
27 Sep - 13:31:27 10° WSW 13:35:29 16° SSW 13:39:34 10° S daylight
28 Sep - 07:45:40 10° S 07:48:30 14° SSE 07:51:31 10° ESE daylight
28 Sep - 09:28:50 10° SW 09:33:46 25° SSE 09:39:08 10° ESE daylight
28 Sep - 11:14:07 10° WSW 11:19:25 26° S 11:25:03 10° SE daylight
28 Sep - 13:00:51 10° WSW 13:04:58 17° SSW 13:09:12 10° SSE daylight
29 Sep - 07:15:50 10° S 07:18:05 12° SSE 07:20:26 10° SE daylight
29 Sep - 08:58:34 10° SW 09:03:16 24° SSE 09:08:25 10° ESE daylight
29 Sep - 10:43:43 10° WSW 10:48:53 26° S 10:54:27 10° SE daylight
29 Sep - 12:30:16 10° WSW 12:34:27 17° SSW 12:38:46 10° SSE daylight
30 Sep - 06:46:17 10° SSE 06:47:41 11° SSE 06:49:07 10° SE daylight
30 Sep - 08:28:20 10° SW 08:32:47 23° SSE 08:37:40 10° ESE daylight
30 Sep - 10:13:20 10° WSW 10:18:21 26° S 10:23:49 10° SE daylight
30 Sep - 11:59:44 10° WSW 12:03:55 18° SSW 12:08:17 10° SSE daylight
01 Oct - 07:58:07 10° SSW 08:02:18 21° SSE 08:06:55 10° ESE daylight
01 Oct - 09:42:59 10° WSW 09:47:50 25° S 09:53:08 10° SE daylight
01 Oct - 11:29:14 10° WSW 11:33:23 18° SSW 11:37:47 10° SSE daylight
02 Oct - 07:27:56 10° SSW 07:31:50 20° SSE 07:36:08 10° ESE daylight
02 Oct - 09:12:39 10° SW 09:17:18 25° S 09:22:27 10° SE daylight
02 Oct - 10:58:45 10° WSW 11:02:51 18° SSW 11:07:13 10° SSE daylight
03 Oct - 06:57:47 10° SSW 07:01:23 19° SSE 07:05:20 10° ESE daylight
03 Oct - 08:42:20 10° SW 08:46:48 24° S 08:51:44 10° SE daylight
03 Oct - 10:28:19 10° WSW 10:32:20 18° SSW 10:36:37 10° SSE daylight
